Regional Weather Roundup
Issued by NWS

Home | Current Version | Previous Version | Text Only | Print | Product List | Glossary On
Versions: 1 2 3 4 5 6 7 8 9 10 11 12 13 14 15 16 17 18 19 20 21 22 23 24 25 26 27 28 29 30 31 32 33 34 35 36 37 38 39 40 41 42 43 44 45 46 47 48 49 50
000
ASUS43 KMKX 042259
RWRWI

WISCONSIN REGIONAL WEATHER ROUNDUP
NATIONAL WEATHER SERVICE MILWAUKEE/SULLIVAN WI
500 PM CST WED MAR 04 2015

NOTE: "FAIR" INDICATES FEW OR NO CLOUDS BELOW 12,000 FEET WITH NO
SIGNIFICANT WEATHER AND/OR OBSTRUCTIONS TO VISIBILITY.

WIZ001-002-006>008-014>016-023>028-050000-
NORTHWEST WISCONSIN

CITY           SKY/WX    TMP DP  RH WIND       PRES   REMARKS
SUPERIOR ARPT  CLEAR      5 -14  42 NW12      30.25R WCI -11
ASHLAND        NOT AVBL
HAYWARD        NOT AVBL
SIREN          CLEAR      6 -13  41 NW14G22   30.23R WCI -10
CUMBERLAND     MOCLDY     5  -9  51 NW10G22   30.18R WCI -10
RICE LAKE      PTCLDY     7 -11  43 W14       30.21R WCI  -9
CHETEK         PTCLDY     7 -10  45 W9        30.20R WCI  -6
LADYSMITH      CLEAR      8  -9  46 W15       30.17R WCI -10
EAU CLAIRE     NOT AVBL
MENOMONIE      CLEAR     11  -9  41 NW14G20   30.22R WCI  -5
NEW RICHMOND   PTCLDY     8  -9  46 NW17      30.24R WCI -10
OSCEOLA        CLEAR      8 -10  44 W16       30.28R WCI  -9
$$

WIZ003>005-009-010-017-018-050000-
NORTH CENTRAL WISCONSIN

CITY           SKY/WX    TMP DP  RH WIND       PRES   REMARKS
MANITOWISH WTR CLOUDY     2 -10  59 NW13G23   30.08R WCI -16
ARBOR VITAE    CLOUDY     5  -6  61 NW7       30.07R WCI  -7
WOODRUFF       CLOUDY     5  -6  61 NW7       30.07R WCI  -7
RHINELANDER    NOT AVBL
EAGLE RIVER    CLOUDY     5 -12  46 W15G21    30.06R WCI -13
LAND O LAKES   CLOUDY     4  -8  57 NW9       30.06R WCI -10
PHILLIPS       CLOUDY     5 -12  47 NW10G16   30.10R WCI -10
TOMAHAWK       PTCLDY     7 -12  42 NW14G20   30.09R WCI -10
MEDFORD        CLEAR      7 -11  43 W13G23    30.10R WCI  -9
MERRILL        CLEAR      9 -12  39 NW9G20    30.10R WCI  -5
$$

WIZ029-030-035-036-043>047-050000-
CENTRAL WISCONSIN

CITY           SKY/WX    TMP DP  RH WIND       PRES   REMARKS
WAUSAU         NOT AVBL
MOSINEE        PTCLDY     9  -9  43 W18G24    30.14R WCI -10
MARSHFIELD     NOT AVBL
STEVENS POINT  CLEAR      8 -11  41 W12G22    30.15R WCI  -7
WAUPACA        CLEAR     15  -9  33 W10G22    30.17R WCI   2
WAUTOMA        NOT AVBL
WISC RAPIDS    NOT AVBL
CAMP DOUGLAS   NOT AVBL
$$

WIZ011>013-019>022-031-037>040-048>050-050000-
NORTHEAST WISCONSIN

CITY           SKY/WX    TMP DP  RH WIND       PRES   REMARKS
ANTIGO         PTCLDY     7 -10  45 NW17      30.06R WCI -12
SHAWANO        CLEAR     15 -12  30 W13G23    30.13R WCI   0
OCONTO         PTCLDY    14 -10  34 W13G21    30.12R WCI  -1
STURGEON BAY   MOCLDY    12  -8  40 W14G20    30.12R WCI  -3
GREEN BAY      NOT AVBL
MANITOWOC      NOT AVBL
APPLETON       PTCLDY    12 -11  34 W18G28    30.15R WCI  -5
CLINTONVILLE   CLEAR     12 -11  34 W15G24    30.14R WCI  -4
OSHKOSH        NOT AVBL
$$

WIZ032>034-041-042-053>061-050000-
SOUTHWEST WISCONSIN

CITY           SKY/WX    TMP DP  RH WIND       PRES   REMARKS
LA CROSSE      NOT AVBL
SPARTA         MOCLDY    14  -4  44 W9        30.22R WCI   2
VIROQUA        CLEAR     12  -4  49 W15G22    30.18S WCI  -4
BOSCOBEL       NOT AVBL
PRAIRIE DU CHI CLEAR     14  -3  45 W16       30.27R WCI  -2
PLATTEVILLE    CLEAR     14   0  53 W15       30.21R WCI  -2
$$

WIZ056-057-062-063-064-067-068-050000-
SOUTH CENTRAL WISCONSIN

CITY           SKY/WX    TMP DP  RH WIND       PRES   REMARKS
REEDSBURG      CLEAR     15  -4  44 W14G20    30.19R WCI   0
BARABOO/DELLS  CLEAR     14  -8  37 W14       30.18R WCI   0
LONE ROCK      NOT AVBL
MINERAL POINT  CLEAR     18  -4  38 W16       30.18R WCI   3
MADISON        NOT AVBL
MIDDLETON      CLEAR     19  -6  33 NW10      30.18R WCI   7
WATERTOWN      CLEAR     17  -3  41 W16       30.16S WCI   1
MONROE         CLEAR     18   0  45 W17G25    30.18S WCI   2
JANESVILLE     CLEAR     18   0  45 W10       30.19R WCI   6
$$

WIZ051-052-058>065-066-070>072-050000-
SOUTHEAST WISCONSIN

CITY           SKY/WX    TMP DP  RH WIND       PRES   REMARKS
MILWAUKEE      NOT AVBL
WAUKESHA       PTCLDY    16  -4  41 W17G23    30.16F WCI   0
MILWAUKEE/TIMM CLEAR     18  -8  32 W15G24    30.17R WCI   3
RACINE         NOT AVBL
BURLINGTON     CLEAR     16  -6  38 W17         N/A  WCI   0
KENOSHA        NOT AVBL
FOND DU LAC    NOT AVBL
SHEBOYGAN      NOT AVBL
WEST BEND      CLEAR     18  -8  32 W14G23    30.14S WCI   4
JUNEAU         CLEAR     15  -5  40 W14G20    30.16R WCI   1
$$

LSZ147-162-050000-
LAKE SUPERIOR

STATION/POSITION TIME  TEMP    WIND        PRES    WAVE
                       AIR SEA DIR/SP/G            HT/PER
                 (UTC) (F)     (DEG/KT/KT) (MB)    (FT/S)
DEVILS ISLAND    2100    5     280/ 21/ 25 1022.9R
PORT WING        2140    5     280/ 15/ 21 1023.0R
SAXON HARBOR     2100    5     290/  9/ 17 1021.3R
$$

LMZ867-665-643>646-050000-
LAKE MICHIGAN

STATION/POSITION TIME  TEMP    WIND        PRES    WAVE
                       AIR SEA DIR/SP/G            HT/PER
                 (UTC) (F)     (DEG/KT/KT) (MB)    (FT/S)
NORTHPORT PIER   2209   13     300/ 14/ 22 1018.6R
SISTER BAY       2143   16     310/ 21/ 24   N/A
KEWAUNEE LAKESHO 2200   14     300/ 16/ 24 1018.4R
SHEBOYGAN LAKESH 2100   15     290/ 18/ 23 1021.5R
PORT WASHINGTON  2240   18     290/ 12/ 21 1021.7R
MILWAUKEE LAKESH 2200   18     290/ 17/ 25   N/A
KENOSHA   LAKESH 2100   18     300/ 14/ 19 1021.3R
$$

TC  - TEMPERATURE IN CELSIUS
VSB - VISIBILITY IN STATUTE MILES
WCI - WIND CHILL INDEX
HX  - HEAT INDEX



USA.gov is the U.S. government's official web portal to all federal, state and local government web resources and services.